{"data":{"norad_id":64365,"epoch":"2026-09-20T16:47:33.119232Z","epoch_age_seconds":117103,"freshness":"FRESH","line1":"1 64365U 25126X   26263.69968888  .00015760  00000+0  55141-3 0  9998","line2":"2 64365  70.0005 260.3250 0003247 269.6916  90.3887 15.29586277 69957","mean_motion":15.29586277,"eccentricity":0.0003247,"inclination_deg":70.0005,"raan_deg":260.325,"arg_perigee_deg":269.6916,"mean_anomaly_deg":90.3887,"bstar":0.00055141,"rev_number":6995,"period_min":94.143104030999,"perigee_km":474.82226973548,"apogee_km":479.27402697082,"semimajor_km":6855.1851483532,"source":"CELESTRAK","updated_at":"2026-09-21T09:00:35.320329Z"}}